Location: Ago
(8.4667°N, 4.4833°E)
Time: 23:58:45
(UTC+00:00)

GP-B - Pass Details

Date: 18 September 2020
Orbit: 631 x 635 km, 89.8° (Epoch: 20 October)

Event Time Altitude Azimuth Distance (km) Brightness Sun altitude
Rises 18:28:35 0° 353° (N) 2,912 6.6 -12.8°
Reaches altitude 10° 18:30:52 10° 347° (NNW) 2,005 5.9 -13.3°
Maximum altitude 18:35:05 46° 274° (W) 850 4.3 -14.4°
Drops below altitude 10° 18:39:18 10° 201° (SSW) 2,006 5.9 -15.4°
Sets 18:41:35 0° 195° (SSW) 2,913 6.7 -16.0°
